Current Weather Conditions: station 62163

sailwx.info

Wind from 050 at 6 knots

Wave height 0.9 meters (2 feet), 5 second period

Air temperature 14.7° C
Dewpoint 13.3° C

Last reported at 2019-Jun-18 19:00 UTC.
Time now 2019-Jun-18 20:41 UTC

Location: N 47°30' W 008°24'.
View on Google Maps.

See reports from other nearby stations

  
Tides and Currents Weather Stations Pressure Air Temp Water Temp Dewpoint Dewpoint Depression Visibility Wind Speed Wind Dir Waves Ship Positions
date/time (UTC)wind fromknots sea level pressurealtimeterstation pressurevisibilityair tempwater tempwave heightnotes
2019-Jun-18 19:00 050 6 14.7 0.9
2019-Jun-18 18:00 040 6 14.8 0.9
2019-Jun-18 17:00 040 7 14.8 0.8
2019-Jun-18 16:00 040 6 14.7 0.9
2019-Jun-18 15:00 070 6 14.7 0.9
2019-Jun-18 14:00 090 8 14.6 1.0
2019-Jun-18 13:00 080 9 14.7 1.1
2019-Jun-18 12:00 080 9 14.8 1.0
2019-Jun-18 11:00 070 9 14.9 1.0
2019-Jun-18 10:00 060 9 14.9 1.1
2019-Jun-18 09:00 040 11 14.7 1.0
2019-Jun-18 08:00 060 11 14.8 1.0
2019-Jun-18 07:00 070 11 14.7 0.9
2019-Jun-18 06:00 070 11 14.7 0.9
2019-Jun-18 05:00 090 9 14.7 1.0
2019-Jun-18 04:00 100 7 14.7 1.1
2019-Jun-18 03:00 100 6 15.0 1.1
2019-Jun-18 02:00 080 5 14.9 1.0
2019-Jun-18 01:00 080 6 15.0 1.2
2019-Jun-18 00:00 090 7 15.1 1.2
2019-Jun-17 23:00 050 4 15.0 1.2
2019-Jun-17 22:00 120 4 15.0 1.1
2019-Jun-17 21:00 110 2 15.0 1.2
2019-Jun-17 20:00 090 0 15.1 1.3
2019-Jun-17 19:00 240 1 15.5 1.2
2019-Jun-17 18:00 200 4 15.4 1.2
2019-Jun-17 17:00 180 5 15.5 1.3
2019-Jun-17 16:00 180 6 15.4 1.3
2019-Jun-17 15:00 200 6 15.3 1.3
2019-Jun-17 13:00 210 7 15.2 1.4
2019-Jun-17 12:00 210 6 15.2 1.4
2019-Jun-17 11:00 200 8 15.1 1.4
2019-Jun-17 10:00 200 8 15.0 1.4
2019-Jun-17 09:00 210 11 14.7 1.3
2019-Jun-17 08:00 200 8 14.3 1.3
2019-Jun-17 07:00 180 12 14.1 1.3
2019-Jun-17 06:00 200 14 14.4 1.5
2019-Jun-17 05:00 210 7 14.9 1.4
2019-Jun-17 04:00 210 8 14.9 1.5
2019-Jun-17 03:00 200 8 14.8 1.5
2019-Jun-17 02:00 240 11 14.8 1.7
2019-Jun-17 01:00 220 11 15.1 1.7
2019-Jun-17 00:00 210 11 15.1 1.9
2019-Jun-16 23:00 210 12 15.2 1.8
2019-Jun-16 22:00 210 11 15.1 1.6
2019-Jun-16 21:00 230 8 14.8 1.6
2019-Jun-16 20:00 210 12 15.3 1.7